Time,TemperatureF,DewpointF,PressureIn,WindDirection,WindDirectionDegrees,WindSpeedMPH,WindSpeedGustMPH,Humidity,HourlyPrecipIn,Conditions,Clouds,dailyrainin,SoftwareType,DateUTC
2013-07-27 00:01:00,68.8,68.8,30.04,NE,37,0.0,0.0,100,0.00,,FEW025,0.00,VWS V14.01,2013-07-27 05:01:00,
2013-07-27 00:06:00,68.6,68.6,30.04,NE,37,0.0,0.0,100,0.00,,FEW025,0.00,VWS V14.01,2013-07-27 05:06:00,
2013-07-27 00:11:00,68.6,68.6,30.04,NE,37,0.0,0.0,100,0.00,,FEW025,0.00,VWS V14.01,2013-07-27 05:11:00,
2013-07-27 00:16:00,68.4,68.4,30.04,NE,37,0.0,0.0,100,0.00,,FEW025,0.00,VWS V14.01,2013-07-27 05:16:00,
2013-07-27 00:21:00,68.3,68.3,30.04,NE,37,0.0,0.0,100,0.00,,FEW025,0.00,VWS V14.01,2013-07-27 05:21:00,
2013-07-27 00:27:00,68.4,68.4,30.04,NE,37,0.0,0.0,100,0.00,,FEW025,0.00,VWS V14.01,2013-07-27 05:27:00,
2013-07-27 00:32:00,68.4,68.4,30.04,NE,37,0.0,0.0,100,0.00,,FEW025,0.00,VWS V14.01,2013-07-27 05:32:00,
2013-07-27 00:37:00,68.3,68.3,30.04,NE,37,0.0,0.0,100,0.00,,FEW025,0.00,VWS V14.01,2013-07-27 05:37:00,
2013-07-27 00:42:00,68.3,68.3,30.04,NE,37,0.0,0.0,100,0.00,,FEW025,0.00,VWS V14.01,2013-07-27 05:42:00,
2013-07-27 00:47:00,68.1,68.1,30.03,NE,37,0.0,0.0,100,0.00,,FEW025,0.00,VWS V14.01,2013-07-27 05:47:00,
2013-07-27 00:52:00,68.1,68.1,30.03,NE,37,0.0,0.0,100,0.00,,FEW025,0.00,VWS V14.01,2013-07-27 05:52:00,
2013-07-27 00:57:00,68.1,68.1,30.03,NE,37,0.0,0.0,100,0.00,,FEW025,0.00,VWS V14.01,2013-07-27 05:57:00,
2013-07-27 01:03:00,68.1,68.1,30.03,NE,37,0.0,0.0,100,0.00,,CLR,0.00,VWS V14.01,2013-07-27 06:03:00,
2013-07-27 01:08:00,67.9,67.9,30.03,NE,37,0.0,0.0,100,0.00,,CLR,0.00,VWS V14.01,2013-07-27 06:08:00,
2013-07-27 01:13:00,67.9,67.9,30.03,NE,37,0.0,0.0,100,0.00,,CLR,0.00,VWS V14.01,2013-07-27 06:13:00,
2013-07-27 01:18:00,67.9,67.9,30.03,NE,37,0.0,0.0,100,0.00,,CLR,0.00,VWS V14.01,2013-07-27 06:18:00,
2013-07-27 01:23:00,67.9,67.9,30.03,NE,37,0.0,0.0,100,0.00,,CLR,0.00,VWS V14.01,2013-07-27 06:23:00,
2013-07-27 01:28:00,67.9,67.9,30.03,NE,37,0.0,0.0,100,0.00,,CLR,0.00,VWS V14.01,2013-07-27 06:28:00,
2013-07-27 01:33:00,67.8,67.8,30.03,NE,37,0.0,0.0,100,0.00,,CLR,0.00,VWS V14.01,2013-07-27 06:33:00,
2013-07-27 01:38:00,67.8,67.8,30.03,NE,37,0.0,0.0,100,0.00,,CLR,0.00,VWS V14.01,2013-07-27 06:38:00,
2013-07-27 01:43:00,67.6,67.6,30.03,NE,37,0.0,0.0,100,0.00,,CLR,0.00,VWS V14.01,2013-07-27 06:43:00,
2013-07-27 01:49:00,67.9,67.9,30.03,NE,37,0.0,0.0,100,0.00,,CLR,0.00,VWS V14.01,2013-07-27 06:49:00,
2013-07-27 01:54:00,67.9,67.9,30.03,NE,37,0.0,0.0,100,0.00,,CLR,0.00,VWS V14.01,2013-07-27 06:54:00,
2013-07-27 01:59:00,67.8,67.8,30.03,NE,37,0.0,0.0,100,0.00,,CLR,0.00,VWS V14.01,2013-07-27 06:59:00,
2013-07-27 02:00:00,67.8,67.8,30.04,NE,37,0.0,0.0,100,0.00,,OVC041CB,0.00,VWS V14.01,2013-07-27 07:00:00,
2013-07-27 02:04:00,67.8,67.8,30.04,NE,37,0.0,0.0,100,0.00,,CLR,0.00,VWS V14.01,2013-07-27 07:04:00,
2013-07-27 02:09:00,67.8,67.8,30.04,NE,37,0.0,0.0,100,0.00,,CLR,0.00,VWS V14.01,2013-07-27 07:09:00,
2013-07-27 02:14:00,67.8,67.8,30.04,NE,37,0.0,0.0,100,0.00,,CLR,0.00,VWS V14.01,2013-07-27 07:14:00,
2013-07-27 02:19:00,67.6,67.6,30.04,NE,37,0.0,0.0,100,0.00,,CLR,0.00,VWS V14.01,2013-07-27 07:19:00,
2013-07-27 02:20:00,67.6,67.6,30.04,NE,37,0.0,0.0,100,0.00,,CLR,0.00,VWS V14.01,2013-07-27 07:20:00,
2013-07-27 02:25:00,67.4,67.4,30.04,NE,37,0.0,0.0,100,0.00,,CLR,0.00,VWS V14.01,2013-07-27 07:25:00,
2013-07-27 02:30:00,67.3,67.3,30.03,NE,37,0.0,0.0,100,0.00,,CLR,0.00,VWS V14.01,2013-07-27 07:30:00,
2013-07-27 02:35:00,67.3,67.3,30.03,NE,37,0.0,0.0,100,0.00,,CLR,0.00,VWS V14.01,2013-07-27 07:35:00,
2013-07-27 02:40:00,67.3,67.3,30.03,NE,37,0.0,0.0,100,0.00,,CLR,0.00,VWS V14.01,2013-07-27 07:40:00,
2013-07-27 02:45:00,67.4,67.4,30.03,NE,37,0.0,0.0,100,0.00,,CLR,0.00,VWS V14.01,2013-07-27 07:45:00,
2013-07-27 02:50:00,67.4,67.4,30.03,NE,37,0.0,0.0,100,0.00,,CLR,0.00,VWS V14.01,2013-07-27 07:50:00,
2013-07-27 02:55:00,67.4,67.4,30.03,NE,37,0.0,0.0,100,0.00,,CLR,0.00,VWS V14.01,2013-07-27 07:55:00,
2013-07-27 03:00:00,67.4,67.4,30.03,NE,37,0.0,0.0,100,0.00,,CLR,0.00,VWS V14.01,2013-07-27 08:00:00,
2013-07-27 03:05:00,67.3,67.3,30.03,NE,37,0.0,0.0,100,0.00,,CLR,0.00,VWS V14.01,2013-07-27 08:05:00,
2013-07-27 03:11:00,67.3,67.3,30.03,NE,37,0.0,0.0,100,0.00,,CLR,0.00,VWS V14.01,2013-07-27 08:11:00,
2013-07-27 03:16:00,67.3,67.3,30.03,NE,37,0.0,0.0,100,0.00,,CLR,0.00,VWS V14.01,2013-07-27 08:16:00,
2013-07-27 03:21:00,67.3,67.3,30.03,NE,37,0.0,0.0,100,0.00,,CLR,0.00,VWS V14.01,2013-07-27 08:21:00,
2013-07-27 03:26:00,67.3,67.3,30.03,NE,37,0.0,0.0,100,0.00,,CLR,0.00,VWS V14.01,2013-07-27 08:26:00,
2013-07-27 03:31:00,67.3,67.3,30.03,NE,37,0.0,0.0,100,0.00,,CLR,0.00,VWS V14.01,2013-07-27 08:31:00,
2013-07-27 03:36:00,67.1,67.1,30.03,NE,37,0.0,0.0,100,0.00,,CLR,0.00,VWS V14.01,2013-07-27 08:36:00,
2013-07-27 03:41:00,67.3,67.3,30.03,NE,37,0.0,0.0,100,0.00,,CLR,0.00,VWS V14.01,2013-07-27 08:41:00,
2013-07-27 03:47:00,67.3,67.3,30.03,NE,37,0.0,0.0,100,0.00,,CLR,0.00,VWS V14.01,2013-07-27 08:47:00,
2013-07-27 03:52:00,67.3,67.3,30.03,NE,37,0.0,0.0,100,0.00,,CLR,0.00,VWS V14.01,2013-07-27 08:52:00,
2013-07-27 03:57:00,67.3,67.3,30.03,NE,37,0.0,0.0,100,0.00,,CLR,0.00,VWS V14.01,2013-07-27 08:57:00,
2013-07-27 04:02:00,67.3,67.3,30.02,NE,37,0.0,0.0,100,0.00,,,0.00,VWS V14.01,2013-07-27 09:02:00,
2013-07-27 04:07:00,67.3,67.3,30.02,NE,37,0.0,0.0,100,0.00,,,0.00,VWS V14.01,2013-07-27 09:07:00,
2013-07-27 04:12:00,67.3,67.3,30.02,NE,37,0.0,0.0,100,0.00,,,0.00,VWS V14.01,2013-07-27 09:12:00,
2013-07-27 04:18:00,67.3,67.3,30.01,NE,37,0.0,0.0,100,0.00,,,0.00,VWS V14.01,2013-07-27 09:18:00,
2013-07-27 04:23:00,67.3,67.3,30.01,NE,37,0.0,0.0,100,0.00,,,0.00,VWS V14.01,2013-07-27 09:23:00,
2013-07-27 04:28:00,67.3,67.3,30.01,NE,37,0.0,0.0,100,0.00,,,0.00,VWS V14.01,2013-07-27 09:28:00,
2013-07-27 04:33:00,67.1,67.1,30.01,NE,37,0.0,1.0,100,0.00,,,0.00,VWS V14.01,2013-07-27 09:33:00,
2013-07-27 04:38:00,67.1,67.1,30.01,NE,37,0.0,1.0,100,0.00,,,0.00,VWS V14.01,2013-07-27 09:38:00,
2013-07-27 04:43:00,67.1,67.1,30.01,NE,37,0.0,1.0,100,0.00,,,0.00,VWS V14.01,2013-07-27 09:43:00,
2013-07-27 04:48:00,67.3,67.3,30.01,NE,37,0.0,1.0,100,0.00,,,0.00,VWS V14.01,2013-07-27 09:48:00,
2013-07-27 04:53:00,67.3,67.3,30.01,NE,37,0.0,1.0,100,0.00,,,0.00,VWS V14.01,2013-07-27 09:53:00,
2013-07-27 04:58:00,67.3,67.3,30.01,NE,37,0.0,1.0,100,0.00,,,0.00,VWS V14.01,2013-07-27 09:58:00,
2013-07-27 05:00:00,67.3,67.3,30.01,NE,37,0.0,1.0,100,0.00,,OVC041CB,0.00,VWS V14.01,2013-07-27 10:00:00,
2013-07-27 05:04:00,67.3,67.3,30.01,NE,37,0.0,0.0,100,0.00,,,0.00,VWS V14.01,2013-07-27 10:04:00,
2013-07-27 05:09:00,67.3,67.3,30.01,NE,37,0.0,0.0,100,0.00,,,0.00,VWS V14.01,2013-07-27 10:09:00,
2013-07-27 05:14:00,67.3,67.3,30.01,NE,37,0.0,0.0,100,0.00,,,0.00,VWS V14.01,2013-07-27 10:14:00,
2013-07-27 05:19:00,67.3,67.3,30.01,NE,37,0.0,0.0,100,0.00,,,0.00,VWS V14.01,2013-07-27 10:19:00,
2013-07-27 05:24:00,67.3,67.3,30.01,NE,37,0.0,0.0,100,0.00,,,0.00,VWS V14.01,2013-07-27 10:24:00,
2013-07-27 05:29:00,67.1,67.1,30.02,NE,37,0.0,0.0,100,0.00,,,0.00,VWS V14.01,2013-07-27 10:29:00,
2013-07-27 05:35:00,67.1,67.1,30.02,NE,37,0.0,0.0,100,0.00,,,0.00,VWS V14.01,2013-07-27 10:35:00,
2013-07-27 05:40:00,67.1,67.1,30.02,NE,37,0.0,0.0,100,0.01,,,0.01,VWS V14.01,2013-07-27 10:40:00,
2013-07-27 05:45:00,67.3,67.3,30.02,NE,37,0.0,0.0,100,0.01,,,0.01,VWS V14.01,2013-07-27 10:45:00,
2013-07-27 05:50:00,67.4,67.4,30.02,NE,37,0.0,0.0,100,0.01,,,0.01,VWS V14.01,2013-07-27 10:50:00,
2013-07-27 05:55:00,67.6,67.6,30.02,NE,37,0.0,0.0,100,0.01,,,0.01,VWS V14.01,2013-07-27 10:55:00,
2013-07-27 06:00:00,67.6,67.6,30.02,NE,37,0.0,0.0,100,0.01,,,0.01,VWS V14.01,2013-07-27 11:00:00,
2013-07-27 06:05:00,67.8,67.8,30.02,NE,37,0.0,0.0,100,0.01,,,0.01,VWS V14.01,2013-07-27 11:05:00,
2013-07-27 06:11:00,67.8,67.8,30.02,NE,37,0.0,0.0,100,0.01,,,0.01,VWS V14.01,2013-07-27 11:11:00,
2013-07-27 06:16:00,67.8,67.8,30.02,NE,37,0.0,0.0,100,0.01,,,0.01,VWS V14.01,2013-07-27 11:16:00,
2013-07-27 06:21:00,67.8,67.8,30.02,NE,37,0.0,0.0,100,0.01,,,0.01,VWS V14.01,2013-07-27 11:21:00,
2013-07-27 06:26:00,67.6,67.6,30.02,NE,37,0.0,0.0,100,0.01,,,0.01,VWS V14.01,2013-07-27 11:26:00,
2013-07-27 06:31:00,67.4,67.4,30.02,NE,37,0.0,0.0,100,0.01,,,0.01,VWS V14.01,2013-07-27 11:31:00,
2013-07-27 06:36:00,67.4,67.4,30.02,NE,37,0.0,0.0,100,0.01,,,0.01,VWS V14.01,2013-07-27 11:36:00,
2013-07-27 06:42:00,67.3,67.3,30.02,NE,37,0.0,0.0,100,0.01,,,0.01,VWS V14.01,2013-07-27 11:42:00,
2013-07-27 06:47:00,67.3,67.3,30.03,NE,37,0.0,0.0,100,0.01,,,0.01,VWS V14.01,2013-07-27 11:47:00,
2013-07-27 06:52:00,67.3,67.3,30.03,NE,37,0.0,0.0,100,0.01,,,0.01,VWS V14.01,2013-07-27 11:52:00,
2013-07-27 06:57:00,67.4,67.4,30.03,NE,37,0.0,1.0,100,0.01,,,0.01,VWS V14.01,2013-07-27 11:57:00,
2013-07-27 07:02:00,67.6,67.6,30.03,NE,37,0.0,0.0,100,0.00,,BKN250,0.01,VWS V14.01,2013-07-27 12:02:00,
2013-07-27 07:07:00,67.8,67.8,30.03,NE,37,0.0,2.0,100,0.00,,BKN250,0.01,VWS V14.01,2013-07-27 12:07:00,
2013-07-27 07:13:00,67.8,67.8,30.03,NE,37,0.0,2.0,100,0.00,,BKN250,0.01,VWS V14.01,2013-07-27 12:13:00,
2013-07-27 07:18:00,67.9,67.9,30.03,NE,37,0.0,2.0,100,0.00,,BKN250,0.01,VWS V14.01,2013-07-27 12:18:00,
2013-07-27 07:23:00,67.9,67.9,30.03,NE,37,0.0,2.0,100,0.00,,BKN250,0.01,VWS V14.01,2013-07-27 12:23:00,
2013-07-27 07:28:00,67.9,67.9,30.03,NE,37,0.0,2.0,100,0.00,,BKN250,0.01,VWS V14.01,2013-07-27 12:28:00,
2013-07-27 07:33:00,67.9,67.9,30.03,NE,37,0.0,2.0,100,0.00,,BKN250,0.01,VWS V14.01,2013-07-27 12:33:00,
2013-07-27 07:38:00,68.1,68.1,30.03,NE,37,0.0,5.0,100,0.00,,BKN250,0.01,VWS V14.01,2013-07-27 12:38:00,
2013-07-27 07:43:00,68.1,68.1,30.03,NE,37,0.0,5.0,100,0.00,,BKN250,0.01,VWS V14.01,2013-07-27 12:43:00,
2013-07-27 07:48:00,68.3,68.3,30.04,NE,37,0.0,5.0,100,0.00,,BKN250,0.01,VWS V14.01,2013-07-27 12:48:00,
2013-07-27 07:53:00,68.3,68.3,30.04,NE,37,0.0,5.0,100,0.00,,BKN250,0.01,VWS V14.01,2013-07-27 12:53:00,
2013-07-27 07:59:00,68.4,68.4,30.04,NE,37,0.0,5.0,100,0.00,,BKN250,0.01,VWS V14.01,2013-07-27 12:59:00,
2013-07-27 08:00:00,68.4,68.4,30.04,NE,37,0.0,5.0,100,0.00,,OVC041CB,0.01,VWS V14.01,2013-07-27 13:00:00,
2013-07-27 08:04:00,68.6,68.6,30.04,NE,37,2.0,2.0,100,0.00,,BKN250,0.01,VWS V14.01,2013-07-27 13:04:00,
2013-07-27 08:09:00,68.6,68.6,30.04,NE,37,0.0,5.0,100,0.00,,BKN250,0.01,VWS V14.01,2013-07-27 13:09:00,
2013-07-27 08:14:00,68.6,68.6,30.05,NE,37,0.0,5.0,100,0.00,,BKN250,0.01,VWS V14.01,2013-07-27 13:14:00,
2013-07-27 08:19:00,68.6,68.6,30.05,NE,37,0.0,5.0,100,0.00,,BKN250,0.01,VWS V14.01,2013-07-27 13:19:00,
2013-07-27 08:24:00,68.6,68.6,30.05,NE,37,1.0,5.0,100,0.00,,BKN250,0.01,VWS V14.01,2013-07-27 13:24:00,
2013-07-27 08:29:00,68.4,68.4,30.06,NE,37,0.0,6.0,100,0.00,,BKN250,0.01,VWS V14.01,2013-07-27 13:29:00,
2013-07-27 08:35:00,68.4,68.4,30.06,NE,35,0.0,6.0,100,0.00,,BKN250,0.01,VWS V14.01,2013-07-27 13:35:00,
2013-07-27 08:40:00,68.4,68.4,30.06,North,352,0.0,6.0,100,0.00,,BKN250,0.01,VWS V14.01,2013-07-27 13:40:00,
2013-07-27 08:45:00,68.4,68.4,30.07,NW,320,2.0,6.0,100,0.00,,BKN250,0.01,VWS V14.01,2013-07-27 13:45:00,
2013-07-27 08:50:00,68.4,68.4,30.07,NNW,329,0.0,6.0,100,0.00,,BKN250,0.01,VWS V14.01,2013-07-27 13:50:00,
2013-07-27 08:55:00,68.4,68.4,30.07,NNW,329,0.0,6.0,100,0.00,,BKN250,0.01,VWS V14.01,2013-07-27 13:55:00,
2013-07-27 09:00:00,68.4,68.4,30.06,North,0,0.0,0.0,100,0.00,,BKN250,0.01,VWS V14.01,2013-07-27 14:00:00,
2013-07-27 09:05:00,68.6,68.6,30.06,North,0,0.0,2.0,100,0.00,,BKN250,0.01,VWS V14.01,2013-07-27 14:05:00,
2013-07-27 09:10:00,68.6,68.6,30.06,North,359,0.0,3.0,100,0.00,,BKN250,0.01,VWS V14.01,2013-07-27 14:10:00,
2013-07-27 09:15:00,68.6,68.6,30.07,North,354,1.0,5.0,100,0.00,,BKN250,0.01,VWS V14.01,2013-07-27 14:15:00,
2013-07-27 09:21:00,68.6,68.6,30.07,NNW,342,0.0,5.0,100,0.00,,BKN250,0.01,VWS V14.01,2013-07-27 14:21:00,
2013-07-27 09:26:00,68.8,68.8,30.07,NNW,344,2.0,5.0,100,0.00,,BKN250,0.01,VWS V14.01,2013-07-27 14:26:00,
2013-07-27 09:31:00,68.8,68.8,30.07,NNW,340,5.0,5.0,100,0.00,,BKN250,0.01,VWS V14.01,2013-07-27 14:31:00,
2013-07-27 09:36:00,68.8,68.8,30.07,NNW,340,0.0,5.0,100,0.00,,BKN250,0.01,VWS V14.01,2013-07-27 14:36:00,
2013-07-27 09:41:00,68.8,68.8,30.07,NNE,17,0.0,5.0,100,0.00,,BKN250,0.01,VWS V14.01,2013-07-27 14:41:00,
2013-07-27 09:46:00,68.8,68.8,30.08,NNW,332,0.0,5.0,100,0.00,,BKN250,0.01,VWS V14.01,2013-07-27 14:46:00,
2013-07-27 09:51:00,69.1,69.1,30.08,NNW,329,0.0,5.0,100,0.00,,BKN250,0.01,VWS V14.01,2013-07-27 14:51:00,
2013-07-27 09:56:00,69.4,69.4,30.08,North,1,0.0,5.0,100,0.00,,BKN250,0.01,VWS V14.01,2013-07-27 14:56:00,
2013-07-27 10:02:00,70.1,70.1,30.07,North,6,0.0,2.0,100,0.00,,BKN250,0.01,VWS V14.01,2013-07-27 15:02:00,
2013-07-27 10:07:00,70.4,70.4,30.07,ENE,75,2.0,5.0,100,0.00,,BKN250,0.01,VWS V14.01,2013-07-27 15:07:00,
2013-07-27 10:12:00,70.6,70.6,30.07,NNW,337,0.0,6.0,100,0.00,,BKN250,0.01,VWS V14.01,2013-07-27 15:12:00,
2013-07-27 10:17:00,71.1,71.1,30.08,NNW,340,0.0,6.0,100,0.00,,BKN250,0.01,VWS V14.01,2013-07-27 15:17:00,
2013-07-27 10:22:00,72.0,72.0,30.08,NNE,23,0.0,6.0,100,0.00,,BKN250,0.01,VWS V14.01,2013-07-27 15:22:00,
2013-07-27 10:27:00,72.3,71.7,30.08,NNE,25,0.0,7.0,98,0.00,,BKN250,0.01,VWS V14.01,2013-07-27 15:27:00,
2013-07-27 10:32:00,72.8,70.3,30.07,West,270,0.0,7.0,92,0.00,,BKN250,0.01,VWS V14.01,2013-07-27 15:32:00,
2013-07-27 10:38:00,72.7,68.3,30.07,NNE,14,0.0,7.0,86,0.00,,BKN250,0.01,VWS V14.01,2013-07-27 15:38:00,
2013-07-27 10:43:00,73.0,68.9,30.07,NNW,347,0.0,7.0,87,0.00,,BKN250,0.01,VWS V14.01,2013-07-27 15:43:00,
2013-07-27 10:48:00,73.7,68.6,30.06,ENE,73,5.0,7.0,84,0.00,,BKN250,0.01,VWS V14.01,2013-07-27 15:48:00,
2013-07-27 10:53:00,74.4,69.3,30.06,North,352,5.0,7.0,84,0.00,,BKN250,0.01,VWS V14.01,2013-07-27 15:53:00,
2013-07-27 10:58:00,74.6,68.4,30.06,ENE,69,0.0,7.0,81,0.00,,BKN250,0.01,VWS V14.01,2013-07-27 15:58:00,
2013-07-27 11:03:00,74.7,67.8,30.07,North,357,5.0,7.0,79,0.00,,BKN250,0.01,VWS V14.01,2013-07-27 16:03:00,
2013-07-27 11:08:00,75.4,68.8,30.07,NNW,344,0.0,7.0,80,0.00,,BKN250,0.01,VWS V14.01,2013-07-27 16:08:00,
2013-07-27 11:13:00,76.0,68.3,30.07,North,353,0.0,7.0,77,0.00,,BKN250,0.01,VWS V14.01,2013-07-27 16:13:00,
2013-07-27 11:18:00,76.8,69.4,30.07,NNW,340,1.0,7.0,78,0.00,,BKN250,0.01,VWS V14.01,2013-07-27 16:18:00,
2013-07-27 11:24:00,77.4,68.5,30.07,NE,42,2.0,7.0,74,0.00,,BKN250,0.01,VWS V14.01,2013-07-27 16:24:00,
2013-07-27 11:29:00,77.6,68.3,30.07,NNE,17,0.0,7.0,73,0.00,,BKN250,0.01,VWS V14.01,2013-07-27 16:29:00,
2013-07-27 11:34:00,78.3,68.9,30.06,NNE,17,2.0,7.0,73,0.00,,BKN250,0.01,VWS V14.01,2013-07-27 16:34:00,
2013-07-27 11:39:00,78.8,68.2,30.06,NW,312,0.0,7.0,70,0.00,,BKN250,0.01,VWS V14.01,2013-07-27 16:39:00,
2013-07-27 11:44:00,78.8,68.6,30.06,ENE,68,0.0,7.0,71,0.00,,BKN250,0.01,VWS V14.01,2013-07-27 16:44:00,
2013-07-27 11:49:00,78.1,66.7,30.06,ENE,66,0.0,7.0,68,0.00,,BKN250,0.01,VWS V14.01,2013-07-27 16:49:00,
2013-07-27 11:54:00,78.8,66.9,30.06,North,359,0.0,7.0,67,0.00,,BKN250,0.01,VWS V14.01,2013-07-27 16:54:00,
2013-07-27 12:00:00,79.2,66.4,30.06,North,357,0.0,7.0,65,0.00,,BKN250,0.01,VWS V14.01,2013-07-27 17:00:00,
2013-07-27 12:05:00,79.6,67.7,30.06,NW,323,0.0,2.0,67,0.00,,SCT250,0.01,VWS V14.01,2013-07-27 17:05:00,
2013-07-27 12:10:00,79.6,68.5,30.06,East,85,0.0,3.0,69,0.00,,SCT250,0.01,VWS V14.01,2013-07-27 17:10:00,
2013-07-27 12:15:00,79.4,66.2,30.05,East,80,1.0,3.0,64,0.00,,SCT250,0.01,VWS V14.01,2013-07-27 17:15:00,
2013-07-27 12:20:00,78.8,66.9,30.05,East,85,3.0,5.0,67,0.00,,SCT250,0.01,VWS V14.01,2013-07-27 17:20:00,
2013-07-27 12:25:00,78.8,65.2,30.05,East,83,0.0,5.0,63,0.00,,SCT250,0.01,VWS V14.01,2013-07-27 17:25:00,
2013-07-27 12:31:00,78.6,65.9,30.05,East,88,0.0,6.0,65,0.00,,SCT250,0.01,VWS V14.01,2013-07-27 17:31:00,
2013-07-27 12:36:00,79.6,65.0,30.05,North,349,2.0,6.0,61,0.00,,SCT250,0.01,VWS V14.01,2013-07-27 17:36:00,
2013-07-27 12:41:00,79.6,65.9,30.05,NNE,23,3.0,6.0,63,0.00,,SCT250,0.01,VWS V14.01,2013-07-27 17:41:00,
2013-07-27 12:46:00,79.6,65.0,30.04,North,0,0.0,6.0,61,0.00,,SCT250,0.01,VWS V14.01,2013-07-27 17:46:00,
2013-07-27 12:51:00,80.1,62.5,30.04,North,0,1.0,12.0,55,0.00,,SCT250,0.01,VWS V14.01,2013-07-27 17:51:00,
2013-07-27 12:56:00,80.5,61.8,30.04,East,80,0.0,12.0,53,0.00,,SCT250,0.01,VWS V14.01,2013-07-27 17:56:00,
2013-07-27 13:01:00,81.1,60.2,30.04,NW,306,0.0,6.0,49,0.00,,SCT250,0.01,VWS V14.01,2013-07-27 18:01:00,
2013-07-27 13:07:00,81.2,62.5,30.04,North,1,0.0,10.0,53,0.00,,SCT250,0.01,VWS V14.01,2013-07-27 18:07:00,
2013-07-27 13:12:00,81.6,61.7,30.04,NW,323,0.0,10.0,51,0.00,,SCT250,0.01,VWS V14.01,2013-07-27 18:12:00,
2013-07-27 13:18:00,81.6,63.4,30.02,NNE,25,2.0,10.0,54,0.00,,SCT250,0.01,VWS V14.01,2013-07-27 18:18:00,
2013-07-27 13:23:00,80.7,62.5,30.02,ENE,61,0.0,10.0,54,0.00,,SCT250,0.01,VWS V14.01,2013-07-27 18:23:00,
2013-07-27 13:28:00,80.5,61.8,30.02,ENE,59,3.0,10.0,53,0.00,,SCT250,0.01,VWS V14.01,2013-07-27 18:28:00,
2013-07-27 13:33:00,80.1,61.4,30.03,ENE,64,0.0,10.0,53,0.00,,SCT250,0.01,VWS V14.01,2013-07-27 18:33:00,
2013-07-27 13:38:00,79.9,60.2,30.03,NE,54,1.0,10.0,51,0.00,,SCT250,0.01,VWS V14.01,2013-07-27 18:38:00,
2013-07-27 13:43:00,80.5,61.8,30.03,North,10,2.0,10.0,53,0.00,,SCT250,0.01,VWS V14.01,2013-07-27 18:43:00,
2013-07-27 13:49:00,81.2,62.5,30.03,North,359,1.0,10.0,53,0.00,,SCT250,0.01,VWS V14.01,2013-07-27 18:49:00,
2013-07-27 13:54:00,81.1,61.8,30.03,NNE,23,5.0,10.0,52,0.00,,SCT250,0.01,VWS V14.01,2013-07-27 18:54:00,
2013-07-27 13:59:00,81.6,61.2,30.03,North,356,0.0,10.0,50,0.00,,SCT250,0.01,VWS V14.01,2013-07-27 18:59:00,
2013-07-27 14:04:00,81.8,61.9,30.03,NNW,347,0.0,3.0,51,0.00,,SCT250,0.01,VWS V14.01,2013-07-27 19:04:00,
2013-07-27 14:09:00,82.0,61.0,30.03,NW,322,0.0,3.0,49,0.00,,SCT250,0.01,VWS V14.01,2013-07-27 19:09:00,
2013-07-27 14:14:00,82.0,62.7,30.02,NW,323,0.0,3.0,52,0.00,,SCT250,0.01,VWS V14.01,2013-07-27 19:14:00,
2013-07-27 14:19:00,82.0,62.7,30.02,WNW,291,0.0,6.0,52,0.00,,SCT250,0.01,VWS V14.01,2013-07-27 19:19:00,
2013-07-27 14:24:00,82.4,63.0,30.02,North,356,3.0,6.0,52,0.00,,SCT250,0.01,VWS V14.01,2013-07-27 19:24:00,
2013-07-27 14:30:00,81.6,61.2,30.01,ENE,76,2.0,6.0,50,0.00,,SCT250,0.01,VWS V14.01,2013-07-27 19:30:00,
2013-07-27 14:35:00,81.1,62.9,30.01,East,86,0.0,6.0,54,0.00,,SCT250,0.01,VWS V14.01,2013-07-27 19:35:00,
2013-07-27 14:40:00,81.4,61.0,30.01,West,275,2.0,6.0,50,0.00,,SCT250,0.01,VWS V14.01,2013-07-27 19:40:00,
2013-07-27 14:45:00,82.0,62.7,30.01,NE,56,2.0,6.0,52,0.00,,SCT250,0.01,VWS V14.01,2013-07-27 19:45:00,
2013-07-27 14:50:00,81.8,62.5,30.01,NNE,28,0.0,6.0,52,0.00,,SCT250,0.01,VWS V14.01,2013-07-27 19:50:00,
2013-07-27 14:55:00,82.4,63.0,30.01,North,11,0.0,6.0,52,0.00,,SCT250,0.01,VWS V14.01,2013-07-27 19:55:00,
2013-07-27 15:00:00,82.8,62.8,30.00,North,359,0.0,0.0,51,0.00,,SCT250,0.01,VWS V14.01,2013-07-27 20:00:00,
2013-07-27 15:06:00,82.6,62.7,30.00,North,359,0.0,2.0,51,0.00,,SCT250,0.01,VWS V14.01,2013-07-27 20:06:00,
2013-07-27 15:11:00,82.0,64.3,30.00,North,359,0.0,3.0,55,0.00,,SCT250,0.01,VWS V14.01,2013-07-27 20:11:00,
2013-07-27 15:16:00,81.4,62.6,30.00,ENE,65,0.0,5.0,53,0.00,,SCT250,0.01,VWS V14.01,2013-07-27 20:16:00,
2013-07-27 15:21:00,81.1,63.9,30.00,ENE,64,0.0,7.0,56,0.00,,SCT250,0.01,VWS V14.01,2013-07-27 20:21:00,
2013-07-27 15:26:00,81.2,64.0,30.00,NE,52,1.0,7.0,56,0.00,,SCT250,0.01,VWS V14.01,2013-07-27 20:26:00,
2013-07-27 15:31:00,81.6,64.4,29.99,NNE,31,3.0,7.0,56,0.00,,SCT250,0.01,VWS V14.01,2013-07-27 20:31:00,
2013-07-27 15:36:00,82.4,62.5,29.99,North,359,0.0,7.0,51,0.00,,SCT250,0.01,VWS V14.01,2013-07-27 20:36:00,
2013-07-27 15:41:00,83.0,65.2,29.99,NNW,337,1.0,7.0,55,0.00,,SCT250,0.01,VWS V14.01,2013-07-27 20:41:00,
2013-07-27 15:46:00,83.0,61.9,29.99,North,0,0.0,7.0,49,0.00,,SCT250,0.01,VWS V14.01,2013-07-27 20:46:00,
2013-07-27 15:51:00,82.2,61.7,29.99,North,0,2.0,7.0,50,0.00,,SCT250,0.01,VWS V14.01,2013-07-27 20:51:00,
2013-07-27 15:57:00,82.4,61.9,29.99,North,0,0.0,7.0,50,0.00,,SCT250,0.01,VWS V14.01,2013-07-27 20:57:00,
2013-07-27 16:00:00,83.2,62.7,29.99,NW,311,2.0,7.0,50,0.00,,OVC041CB,0.01,VWS V14.01,2013-07-27 21:00:00,
2013-07-27 16:02:00,83.2,62.7,29.99,East,83,2.0,2.0,50,0.00,,SCT250,0.01,VWS V14.01,2013-07-27 21:02:00,
2013-07-27 16:07:00,83.2,63.2,29.99,West,280,0.0,7.0,51,0.00,,SCT250,0.01,VWS V14.01,2013-07-27 21:07:00,
2013-07-27 16:12:00,83.6,64.1,29.99,NNE,14,0.0,7.0,52,0.00,,SCT250,0.01,VWS V14.01,2013-07-27 21:12:00,
2013-07-27 16:17:00,83.2,62.7,29.99,North,354,0.0,7.0,50,0.00,,SCT250,0.01,VWS V14.01,2013-07-27 21:17:00,
2013-07-27 16:22:00,82.2,62.8,29.99,NE,51,0.0,7.0,52,0.00,,SCT250,0.01,VWS V14.01,2013-07-27 21:22:00,
2013-07-27 16:28:00,82.6,63.8,29.99,NE,51,0.0,7.0,53,0.00,,SCT250,0.01,VWS V14.01,2013-07-27 21:28:00,
2013-07-27 16:33:00,82.2,62.3,29.98,North,1,1.0,7.0,51,0.00,,SCT250,0.01,VWS V14.01,2013-07-27 21:33:00,
2013-07-27 16:38:00,82.8,63.9,29.98,NW,325,2.0,7.0,53,0.00,,SCT250,0.01,VWS V14.01,2013-07-27 21:38:00,
2013-07-27 16:43:00,83.4,64.5,29.98,NNW,344,2.0,7.0,53,0.00,,SCT250,0.01,VWS V14.01,2013-07-27 21:43:00,
2013-07-27 16:48:00,83.0,63.6,29.98,North,359,0.0,7.0,52,0.00,,SCT250,0.01,VWS V14.01,2013-07-27 21:48:00,
2013-07-27 16:50:00,83.0,62.5,29.98,North,359,0.0,7.0,50,0.00,,SCT250,0.01,VWS V14.01,2013-07-27 21:50:00,
2013-07-27 16:55:00,82.6,63.8,29.98,NE,56,3.0,7.0,53,0.00,,SCT250,0.01,VWS V14.01,2013-07-27 21:55:00,
2013-07-27 17:00:00,82.0,62.7,29.98,East,86,2.0,2.0,52,0.00,,SCT250,0.01,VWS V14.01,2013-07-27 22:00:00,
2013-07-27 17:06:00,81.8,61.9,29.98,ENE,76,0.0,5.0,51,0.00,,SCT250,0.01,VWS V14.01,2013-07-27 22:06:00,
2013-07-27 17:11:00,81.8,64.6,29.98,ENE,66,0.0,5.0,56,0.00,,SCT250,0.01,VWS V14.01,2013-07-27 22:11:00,
2013-07-27 17:16:00,81.8,63.5,29.98,NE,51,0.0,5.0,54,0.00,,SCT250,0.01,VWS V14.01,2013-07-27 22:16:00,
2013-07-27 17:22:00,81.8,63.0,29.98,ENE,61,0.0,5.0,53,0.00,,SCT250,0.01,VWS V14.01,2013-07-27 22:22:00,
2013-07-27 17:27:00,81.8,61.9,29.98,ENE,61,0.0,5.0,51,0.00,,SCT250,0.01,VWS V14.01,2013-07-27 22:27:00,
2013-07-27 17:32:00,81.8,63.0,29.98,North,359,1.0,5.0,53,0.00,,SCT250,0.01,VWS V14.01,2013-07-27 22:32:00,
2013-07-27 17:37:00,82.2,61.7,29.98,NNW,329,2.0,6.0,50,0.00,,SCT250,0.01,VWS V14.01,2013-07-27 22:37:00,
2013-07-27 17:42:00,82.0,62.7,29.98,NNE,24,1.0,6.0,52,0.00,,SCT250,0.01,VWS V14.01,2013-07-27 22:42:00,
2013-07-27 17:47:00,82.2,63.4,29.98,NNE,30,0.0,6.0,53,0.00,,SCT250,0.01,VWS V14.01,2013-07-27 22:47:00,
2013-07-27 17:52:00,82.0,63.7,29.98,North,0,0.0,6.0,54,0.00,,SCT250,0.01,VWS V14.01,2013-07-27 22:52:00,
2013-07-27 17:58:00,82.6,63.2,29.98,North,356,2.0,6.0,52,0.00,,SCT250,0.01,VWS V14.01,2013-07-27 22:58:00,
2013-07-27 18:03:00,82.0,63.2,29.97,North,356,2.0,5.0,53,0.00,,FEW250,0.01,VWS V14.01,2013-07-27 23:03:00,
2013-07-27 18:08:00,81.4,64.2,29.97,NNE,27,0.0,5.0,56,0.00,,FEW250,0.01,VWS V14.01,2013-07-27 23:08:00,
2013-07-27 18:13:00,81.1,63.4,29.97,NNE,32,0.0,5.0,55,0.00,,FEW250,0.01,VWS V14.01,2013-07-27 23:13:00,
2013-07-27 18:18:00,81.2,64.0,29.98,NNE,13,1.0,5.0,56,0.00,,FEW250,0.01,VWS V14.01,2013-07-27 23:18:00,
2013-07-27 18:24:00,81.1,63.9,29.98,NNE,13,1.0,5.0,56,0.00,,FEW250,0.01,VWS V14.01,2013-07-27 23:24:00,
2013-07-27 18:29:00,81.2,63.5,29.98,NW,319,5.0,7.0,55,0.00,,FEW250,0.01,VWS V14.01,2013-07-27 23:29:00,
2013-07-27 18:34:00,81.1,63.4,29.97,NNE,16,0.0,7.0,55,0.00,,FEW250,0.01,VWS V14.01,2013-07-27 23:34:00,
2013-07-27 18:39:00,81.1,62.9,29.97,NNW,330,0.0,7.0,54,0.00,,FEW250,0.01,VWS V14.01,2013-07-27 23:39:00,
2013-07-27 18:44:00,81.1,63.4,29.97,North,354,0.0,7.0,55,0.00,,FEW250,0.01,VWS V14.01,2013-07-27 23:44:00,
2013-07-27 18:49:00,81.1,63.9,29.97,North,359,0.0,7.0,56,0.00,,FEW250,0.01,VWS V14.01,2013-07-27 23:49:00,
2013-07-27 18:54:00,81.1,63.4,29.97,North,354,0.0,7.0,55,0.00,,FEW250,0.01,VWS V14.01,2013-07-27 23:54:00,
2013-07-27 18:59:00,81.1,63.9,29.97,North,0,0.0,7.0,56,0.00,,FEW250,0.01,VWS V14.01,2013-07-27 23:59:00,
2013-07-27 19:00:00,81.1,63.9,29.97,North,0,0.0,7.0,56,0.00,,OVC041CB,0.01,VWS V14.01,2013-07-28 00:00:00,
2013-07-27 19:04:00,81.1,63.4,29.97,North,352,0.0,5.0,55,0.00,,FEW250,0.01,VWS V14.01,2013-07-28 00:04:00,
2013-07-27 19:09:00,80.5,62.3,29.97,North,11,0.0,5.0,54,0.00,,FEW250,0.01,VWS V14.01,2013-07-28 00:09:00,
2013-07-27 19:15:00,80.3,62.2,29.97,North,4,3.0,5.0,54,0.00,,FEW250,0.01,VWS V14.01,2013-07-28 00:15:00,
2013-07-27 19:20:00,80.1,62.5,29.97,North,359,0.0,6.0,55,0.00,,FEW250,0.01,VWS V14.01,2013-07-28 00:20:00,
2013-07-27 19:25:00,79.9,63.3,29.97,North,349,0.0,6.0,57,0.00,,FEW250,0.01,VWS V14.01,2013-07-28 00:25:00,
2013-07-27 19:30:00,79.8,63.7,29.97,NNW,342,1.0,6.0,58,0.00,,FEW250,0.01,VWS V14.01,2013-07-28 00:30:00,
2013-07-27 19:35:00,79.4,63.3,29.97,NNW,332,0.0,6.0,58,0.00,,FEW250,0.01,VWS V14.01,2013-07-28 00:35:00,
2013-07-27 19:41:00,79.0,63.0,29.97,NNW,332,0.0,6.0,58,0.00,,FEW250,0.01,VWS V14.01,2013-07-28 00:41:00,
2013-07-27 19:46:00,78.8,62.8,29.97,North,356,0.0,6.0,58,0.00,,FEW250,0.01,VWS V14.01,2013-07-28 00:46:00,
2013-07-27 19:51:00,78.5,62.5,29.97,North,357,0.0,6.0,58,0.00,,FEW250,0.01,VWS V14.01,2013-07-28 00:51:00,
2013-07-27 19:56:00,78.3,62.8,29.97,North,357,0.0,6.0,59,0.00,,FEW250,0.01,VWS V14.01,2013-07-28 00:56:00,
2013-07-27 20:01:00,77.9,62.9,29.96,North,357,0.0,1.0,60,0.00,,BKN250,0.01,VWS V14.01,2013-07-28 01:01:00,
2013-07-27 20:06:00,77.7,63.2,29.96,North,359,0.0,3.0,61,0.00,,BKN250,0.01,VWS V14.01,2013-07-28 01:06:00,
2013-07-27 20:11:00,77.4,62.9,29.96,North,356,0.0,3.0,61,0.00,,BKN250,0.01,VWS V14.01,2013-07-28 01:11:00,
2013-07-27 20:16:00,77.0,62.5,29.98,North,350,0.0,5.0,61,0.00,,BKN250,0.01,VWS V14.01,2013-07-28 01:16:00,
2013-07-27 20:22:00,76.7,62.7,29.98,North,359,0.0,5.0,62,0.00,,BKN250,0.01,VWS V14.01,2013-07-28 01:22:00,
2013-07-27 20:27:00,76.1,63.0,29.98,North,359,0.0,5.0,64,0.00,,BKN250,0.01,VWS V14.01,2013-07-28 01:27:00,
2013-07-27 20:32:00,75.8,62.8,29.97,North,359,0.0,5.0,64,0.00,,BKN250,0.01,VWS V14.01,2013-07-28 01:32:00,
2013-07-27 20:37:00,75.4,62.8,29.97,North,359,0.0,5.0,65,0.00,,BKN250,0.01,VWS V14.01,2013-07-28 01:37:00,
2013-07-27 20:42:00,75.3,62.7,29.97,North,359,0.0,5.0,65,0.00,,BKN250,0.01,VWS V14.01,2013-07-28 01:42:00,
2013-07-27 20:47:00,74.9,62.3,29.96,North,359,0.0,5.0,65,0.00,,BKN250,0.01,VWS V14.01,2013-07-28 01:47:00,
2013-07-27 20:52:00,74.7,62.2,29.96,North,359,0.0,5.0,65,0.00,,BKN250,0.01,VWS V14.01,2013-07-28 01:52:00,
2013-07-27 20:58:00,74.6,62.5,29.96,North,359,0.0,5.0,66,0.00,,BKN250,0.01,VWS V14.01,2013-07-28 01:58:00,
2013-07-27 21:03:00,74.4,62.3,29.95,North,359,0.0,0.0,66,0.00,,BKN250,0.01,VWS V14.01,2013-07-28 02:03:00,
2013-07-27 21:08:00,74.0,62.4,29.95,North,359,0.0,0.0,67,0.00,,BKN250,0.01,VWS V14.01,2013-07-28 02:08:00,
2013-07-27 21:13:00,73.9,62.3,29.95,North,359,0.0,0.0,67,0.00,,BKN250,0.01,VWS V14.01,2013-07-28 02:13:00,
2013-07-27 21:18:00,73.7,62.5,29.96,North,359,0.0,0.0,68,0.00,,BKN250,0.01,VWS V14.01,2013-07-28 02:18:00,
2013-07-27 21:23:00,73.3,62.1,29.96,North,359,0.0,0.0,68,0.00,,BKN250,0.01,VWS V14.01,2013-07-28 02:23:00,
2013-07-27 21:29:00,73.2,62.8,29.96,North,359,0.0,0.0,70,0.00,,BKN250,0.01,VWS V14.01,2013-07-28 02:29:00,
2013-07-27 21:34:00,73.0,62.7,29.96,North,359,0.0,0.0,70,0.00,,BKN250,0.01,VWS V14.01,2013-07-28 02:34:00,
2013-07-27 21:39:00,72.8,62.9,29.96,North,359,0.0,0.0,71,0.00,,BKN250,0.01,VWS V14.01,2013-07-28 02:39:00,
2013-07-27 21:44:00,72.7,62.8,29.96,North,359,0.0,0.0,71,0.00,,BKN250,0.01,VWS V14.01,2013-07-28 02:44:00,
2013-07-27 21:49:00,72.7,62.8,29.97,North,359,0.0,0.0,71,0.00,,BKN250,0.01,VWS V14.01,2013-07-28 02:49:00,
2013-07-27 21:54:00,72.7,63.2,29.97,North,359,0.0,0.0,72,0.00,,BKN250,0.01,VWS V14.01,2013-07-28 02:54:00,
2013-07-27 21:59:00,72.5,63.4,29.98,North,359,0.0,0.0,73,0.00,,BKN250,0.01,VWS V14.01,2013-07-28 02:59:00,
2013-07-27 22:04:00,72.5,63.8,29.98,North,359,0.0,0.0,74,0.00,,BKN250,0.01,VWS V14.01,2013-07-28 03:04:00,
2013-07-27 22:10:00,72.3,63.6,29.98,North,359,0.0,0.0,74,0.00,,BKN250,0.01,VWS V14.01,2013-07-28 03:10:00,
2013-07-27 22:15:00,72.1,63.4,29.97,North,359,0.0,0.0,74,0.00,,BKN250,0.01,VWS V14.01,2013-07-28 03:15:00,
2013-07-27 22:20:00,72.0,63.3,29.97,North,359,0.0,0.0,74,0.00,,BKN250,0.01,VWS V14.01,2013-07-28 03:20:00,
2013-07-27 22:25:00,71.8,63.1,29.97,North,359,0.0,0.0,74,0.00,,BKN250,0.01,VWS V14.01,2013-07-28 03:25:00,
2013-07-27 22:30:00,71.8,63.1,29.97,North,359,0.0,0.0,74,0.00,,BKN250,0.01,VWS V14.01,2013-07-28 03:30:00,
2013-07-27 22:35:00,71.8,63.1,29.97,North,359,0.0,0.0,74,0.00,,BKN250,0.01,VWS V14.01,2013-07-28 03:35:00,
2013-07-27 22:40:00,71.8,63.1,29.97,North,359,0.0,0.0,74,0.00,,BKN250,0.01,VWS V14.01,2013-07-28 03:40:00,
2013-07-27 22:46:00,71.8,62.7,29.98,North,359,0.0,0.0,73,0.00,,BKN250,0.01,VWS V14.01,2013-07-28 03:46:00,
2013-07-27 22:51:00,71.8,62.7,29.98,North,359,0.0,1.0,73,0.00,,BKN250,0.01,VWS V14.01,2013-07-28 03:51:00,
2013-07-27 22:56:00,71.8,62.7,29.98,North,359,0.0,1.0,73,0.00,,BKN250,0.01,VWS V14.01,2013-07-28 03:56:00,
2013-07-27 23:01:00,71.6,62.9,29.98,North,359,0.0,0.0,74,0.00,,CLR,0.01,VWS V14.01,2013-07-28 04:01:00,
2013-07-27 23:02:00,71.6,62.9,29.98,North,359,0.0,1.0,74,0.00,,CLR,0.01,VWS V14.01,2013-07-28 04:02:00,
2013-07-27 23:03:00,71.6,62.9,29.98,North,359,0.0,1.0,74,0.00,,CLR,0.01,VWS V14.01,2013-07-28 04:03:00,
2013-07-27 23:05:00,71.6,62.9,29.98,North,359,2.0,2.0,74,0.00,,CLR,0.01,VWS V14.01,2013-07-28 04:05:00,
2013-07-27 23:11:00,71.5,62.8,29.98,North,359,0.0,2.0,74,0.00,,CLR,0.01,VWS V14.01,2013-07-28 04:11:00,
2013-07-27 23:16:00,71.5,62.8,29.98,North,359,0.0,2.0,74,0.00,,CLR,0.01,VWS V14.01,2013-07-28 04:16:00,
2013-07-27 23:21:00,71.3,62.6,29.98,North,359,0.0,2.0,74,0.00,,CLR,0.01,VWS V14.01,2013-07-28 04:21:00,
2013-07-27 23:26:00,71.3,62.6,29.98,North,359,0.0,2.0,74,0.00,,CLR,0.01,VWS V14.01,2013-07-28 04:26:00,
2013-07-27 23:31:00,71.3,62.2,29.99,North,359,0.0,2.0,73,0.00,,CLR,0.01,VWS V14.01,2013-07-28 04:31:00,
2013-07-27 23:36:00,71.1,62.4,29.99,North,359,0.0,2.0,74,0.00,,CLR,0.01,VWS V14.01,2013-07-28 04:36:00,
2013-07-27 23:41:00,71.1,62.0,29.99,North,359,0.0,2.0,73,0.00,,CLR,0.01,VWS V14.01,2013-07-28 04:41:00,
2013-07-27 23:47:00,71.1,62.0,29.99,North,359,0.0,2.0,73,0.00,,CLR,0.01,VWS V14.01,2013-07-28 04:47:00,
2013-07-27 23:52:00,71.1,62.4,29.99,North,359,0.0,2.0,74,0.00,,CLR,0.01,VWS V14.01,2013-07-28 04:52:00,
2013-07-27 23:57:00,70.9,61.8,29.99,North,0,0.0,2.0,73,0.00,,CLR,0.01,VWS V14.01,2013-07-28 04:57:00,